Orbital Elements at Epoch 2459000.5 (2020-May-31.0) TDB
Reference: JPL 24 (heliocentric ecliptic J2000)
Element | Value | Uncertainty (1-sigma) | Units |
e | .2444216747220006 | 4.8987e-08 | |
a | 2.617303196175627 | 1.8769e-08 | au |
q | 1.977577565711136 | 1.3484e-07 | au |
i | 9.674732163941137 | 5.2123e-06 | deg |
node | 181.4615728694436 | 2.1394e-05 | deg |
peri | 165.3707940021773 | 2.3182e-05 | deg |
M | 129.8543554711443 | 7.5278e-06 | deg |
tp | 2458442.629366829462 (2018-Nov-20.12936683) | 3.0786e-05 | TDB |
period | 1546.605250264572 4.23 | 1.6636e-05 4.555e-08 | d yr |
n | .2327678636409751 | 2.5038e-09 | deg/d |
Q | 3.25702882664012 | 2.3356e-08 | au |
|
| | Orbit Determination Parameters
Additional Information
|